SCP
0 -0 0 -0 -0 -0 -0 -0 -0 -0 -0 -0 -0 -0 -0 -0 -0 -0 -0 -0 -0 -0 -0 -0 -0 -0 -0 -0 -0 -0 -0 -0 -0 -0 -0 -0 -0 -0 -0 -0 -0 -0 -0
0 0 0 -0 -0 -0 -0 0 -0 -0 -0 -0 -0 -0 -0 -0 -0 -0 -0 -0 -0 -0 -0 -0 -0 -0 -0 -0 -0 -0 -0 -0 -0 0 -0 -0 -0 -0 -0 -0 -0 -0 -0
0 0 -0 0 0 -0 -0 -0 -0 -0 -0 -0 -0 -0 -0 -0 -0 -0 -0 -0 -0 -0 -0 -0 -0 -0 -0 -0 -0 -0 -0 -0 -0 -0 -0 -0 -0 -0 -0 -0 -0 -0 -0
0 0 0 0 0 0 0 0 -0 -0 -0 -0 -0 -0 -0 -0 -0 -0 -0 -0 -0 -0 -0 -0 -0 -0 -0 -0 -0 -0 -0 -0 -0 -0 -0 -0 -0 -0 -0 -0 -0 -0 -0
-0 0 0 0 0 0 0 -0 0 0 0 -0 -0 -0 -0 -0 -0 -0 -0 -0 -0 -0 -0 -0 -0 -0 -0 -0 -0 -0 -0 -0 -0 -0 -0 0 0 -0 -0 -0 -0 -0 -0
-0 0 0 0 0 0 -0 -0 -0 -0 0 0 -0 -0 -0 -0 -0 -0 -0 -0 -0 -0 -0 -0 -0 -0 -0 -0 -0 -0 -0 -0 -0 -0 0 0 0 -0 -0 -0 0 0 0
0 0 0 0 0 0 0 -0 -0 -0 -0 0 0 -0 0 -0 0 -0 -0 -0 -0 -0 -0 -0 -0 -0 -0 -0 0 -0 -0 -0 0 0 0 0 0 0 0 0 0 0 0
-0 0 0 0 0 0 0 0 -0 0 -0 -0 -0 -0 -0 -0 -0 0 -0 -0 -0 -0 -0 -0 -0 -0 -0 0 0 -0 -0 0 0 0 0 0 0 0 0 0 0 0 0
-0 0 0 0 0 0 0 0 0 0 0 -0 -0 -0 -0 -0 -0 -0 -0 -0 -0 -0 -0 0 0 0 0 0 0 0 0 0 0 0 0 0 0 0 0 0 0 0 0
0 0 0 0 0 0 0 0 0 0 0 0 -0 -0 -0 -0 -0 -0 0 -0 -0 -0 -0 0 0 0 0 0 0 0 0 0 0 0 0 0 0 0 0 0 0 0 0
0 0 0 0 0 0 0 0 0 0 0 0 -0 -0 0 0 0 0 -0 -0 -0 -0 -0 0 0 0 0 0 0 0 0 0 0 0 0 0 0 0 0 0 0 0 0
-0 -0 -0 0 0 0 0 0 0 0 0 0 0 0 0 0 0 0 0 0 0 -0 0 0 0 0 0 0 0 0 0 0 0 0 0 0 0 0 0 0 0 0 0
-0 -0 -0 -0 0 0 0 0 0 0 0 0 0 0 0 0 0 0 0 0 0 0 0 0 0 0 0 0 0 0 0 0 0 0 0 0 0 0 0 0 0 0 0
-0 -0 -0 -0 0 0 0 -0 -0 -0 0 0 0 0 0 0 0 0 0 0 0 0 0 0 0 0 0 0 0 0 0 0 0 0 0 0 0 0 0 0 0 0 0
-0 -0 -0 -0 -0 0 0 0 -0 -0 -0 0 0 0 0 0 0 0 0 0 0 0 0 0 0 0 0 0 0 0 0 0 0 0 0 0 0 0 0 0 0 0 0
-0 -0 -0 -0 -0 -0 0 0 0 0 -0 -0 0 0 0 0 0 0 0 0 0 0 0 0 0 0 0 0 0 0 0 0 0 0 0 0 0 0 0 0 0 0 0
0 0 0 0 -0 -0 -0 0 0 0 0 0 0 0 0 0 0 0 0 0 0 0 0 0 0 0 0 0 0 0 0 0 0 0 0 0 0 0 0 0 0 0 0
0 0 0 0 0 0 0 0 0 0 0 0 0 0 0 0 0 0 0 0 0 0 0 0 0 0 0 0 0 0 0 0 0 0 0 0 0 0 0 0 0 0 0
0 0 0 0 0 0 0 0 0 0 0 0 0 0 0 0 0 0 0 0 0 0 0 0 0 0 0 0 0 0 0 0 0 0 0 0 0 0 0 0 0 0 0
0 0 0 0 0 0 0 0 0 0 0 0 0 0 0 0 0 0 0 0 0 0 0 0 0 0 0 0 0 0 0 0 0 0 0 0 0 0 0 0 0 0 0
0 0 0 0 0 0 0 0 0 0 0 0 0 0 0 0 0 0 0 0 0 0 0 0 0 0 0 0 0 0 0 0 0 0 0 0 0 0 0 0 0 0 0
0 0 0 0 0 0 0 0 0 0 0 0 0 0 0 0 0 0 0 0 0 0 0 0 0 0 0 0 0 0 0 0 0 0 0 0 0 0 0 0 0 0 0
0 0 0 0 0 0 0 0 0 0 0 0 0 0 0 0 0 0 0 0 0 0 0 0 0 0 0 0 0 0 0 0 0 0 0 0 0 0 0 0 0 0 0
0 0 0 0 0 0 0 0 0 0 0 0 0 0 0 0 0 0 0 0 0 0 0 0 0 0 0 0 0 0 0 0 0 0 0 0 0 0 0 0 0 0 0
0 0 0 0 0 0 0 0 0 0 0 0 0 0 0 0 0 0 0 0 0 0 0 0 0 0 0 0 0 0 0 0 0 0 0 0 0 0 0 0 0 0 0
0 0 0 0 0 0 0 0 0 0 0 0 0 0 0 0 0 0 0 0 0 0 0 0 0 0 0 0 0 0 0 0 0 0 0 0 0 0 0 0 0 0 0
Wind_Speed_500mb
23 33 19 19 18 20 23 24 22 21 20 22 19 20 21 21 20 22 15 11 9 16 23 25 25 29 33 35 36 38 39 40 39 37 37 35 34 36 32 30 30 33 31
29 34 21 20 20 21 25 28 23 17 22 26 25 27 25 20 17 27 22 21 21 25 28 27 28 30 33 33 34 36 37 39 36 30 29 29 27 25 24 25 24 24 22
34 31 25 21 21 22 25 29 23 16 22 28 29 29 30 30 35 28 26 29 30 29 27 27 27 30 29 28 30 33 34 33 31 22 29 23 27 17 16 19 19 17 17
34 29 26 24 22 22 23 25 24 20 26 25 29 31 30 34 35 26 26 32 30 28 25 25 24 22 22 22 24 28 35 30 25 22 26 27 26 22 20 22 22 22 15
30 29 28 25 23 23 23 23 22 24 25 23 29 31 32 31 28 25 27 28 28 27 27 25 23 21 19 20 22 24 29 24 14 18 21 18 21 22 18 18 16 20 22
31 29 27 25 23 23 23 22 23 27 27 21 25 28 29 29 26 23 25 26 25 25 24 24 23 22 23 24 28 35 32 28 26 21 15 16 19 14 11 13 16 11 11
31 28 28 25 24 22 21 21 22 25 27 18 18 23 26 27 25 22 21 22 23 22 22 23 24 25 26 29 31 30 32 23 18 15 14 15 15 13 10 6 7 3 3
31 31 29 26 23 22 21 20 20 22 25 18 16 19 20 23 22 19 19 18 18 19 19 21 22 25 27 29 29 27 29 21 13 8 10 13 18 19 13 2 7 4 7
27 31 32 28 26 23 21 19 19 19 21 18 15 15 15 17 18 17 13 13 15 14 16 18 21 22 24 24 25 26 27 14 13 10 6 15 23 17 16 9 4 3 3
26 26 31 29 26 22 20 19 17 16 17 16 13 11 10 11 13 13 11 8 11 12 14 16 18 20 19 18 18 22 22 14 10 9 7 16 18 12 11 4 5 7 4
30 26 30 30 28 25 21 19 18 16 15 15 12 9 5 7 7 8 6 4 7 8 10 12 14 14 12 12 15 18 18 11 8 7 12 15 18 19 16 14 8 5 5
39 32 30 33 30 28 27 23 20 17 15 13 11 10 8 4 3 7 3 1 3 6 8 9 9 9 7 10 10 11 9 8 7 10 15 12 16 19 19 13 7 7 4
39 38 36 36 36 32 29 27 24 21 18 16 14 14 13 13 6 2 3 3 4 6 7 7 6 3 6 4 4 7 5 12 3 11 14 15 14 19 23 16 13 11 8
39 40 40 39 40 36 33 27 27 24 23 20 17 16 16 13 9 6 2 3 6 7 8 8 5 2 3 3 3 4 4 6 3 12 12 12 14 15 19 20 15 12 11
47 44 45 43 46 44 42 35 32 27 25 23 22 21 18 16 11 10 7 4 5 8 7 8 6 6 5 4 3 3 4 3 2 10 16 13 14 14 12 14 16 14 14
36 46 51 47 38 46 47 43 39 35 31 26 27 25 23 21 18 16 14 11 8 9 10 10 8 8 6 6 4 2 5 9 9 11 19 23 18 17 17 17 18 18 18
41 42 44 41 39 41 45 46 44 42 39 33 29 29 28 29 26 23 21 19 15 12 12 12 12 11 10 9 9 10 13 16 18 21 23 29 32 31 25 24 25 26 24
39 40 44 45 47 47 40 43 44 44 42 42 39 35 33 33 33 30 28 25 24 20 17 16 13 13 14 16 18 22 22 23 28 29 33 32 39 41 41 38 33 33 34
40 40 43 47 47 44 40 41 42 44 44 41 39 40 35 31 34 36 33 31 31 30 27 25 22 21 22 26 29 33 35 38 41 41 42 44 45 46 50 50 47 48 45
37 39 40 46 47 42 42 44 43 45 45 42 42 38 39 38 33 32 38 37 39 37 35 34 33 33 33 37 42 43 47 50 52 54 55 56 56 54 51 54 56 53 53
45 46 46 48 50 48 48 51 52 52 51 49 48 45 41 38 39 40 39 39 43 44 40 40 42 43 45 46 50 58 60 63 61 60 60 58 57 58 53 52 56 58 60
38 45 48 51 52 55 54 48 51 52 52 50 49 50 49 44 43 44 43 43 45 46 40 41 45 47 49 51 55 60 60 64 64 58 51 47 49 49 50 47 46 55 60
40 44 49 55 55 52 55 53 44 46 48 50 53 53 53 47 45 46 45 43 44 48 44 51 44 47 52 55 56 61 34 23 43 50 53 53 52 58 57 53 59 56 58
39 45 46 52 61 60 54 55 54 51 54 54 48 47 48 47 45 46 45 46 45 46 48 47 48 45 48 52 54 55 57 66 57 40 54 57 61 67 64 61 63 60 62
30 35 37 38 38 46 60 58 55 49 45 42 38 37 37 39 38 40 42 42 45 46 44 45 40 51 49 54 47 55 52 57 52 55 66 68 68 68 62 69 71 65 63
16 17 20 21 25 33 42 56 51 43 42 34 30 32 32 30 30 29 30 35 36 40 38 41 39 47 44 45 51 48 47 51 53 54 64 73 72 78 75 76 76 75 73
Wind_Direction_500mb
182 161 137 124 119 109 105 105 92 82 69 75 77 95 100 94 91 80 97 138 118 85 94 91 103 98 90 88 89 87 88 85 81 83 84 84 83 79 77 80 82 80 78
169 161 143 130 116 114 103 108 106 77 76 86 83 86 91 85 92 83 74 88 106 95 97 98 108 106 100 96 91 90 89 82 74 66 69 70 71 76 74 68 72 81 83
161 154 144 129 119 115 112 112 103 88 81 91 88 92 88 86 85 89 79 90 93 96 101 103 108 109 104 100 97 96 86 76 69 63 65 69 69 65 92 85 80 77 87
155 153 143 128 118 115 114 116 118 94 87 81 86 84 86 89 94 87 78 85 92 96 102 104 108 110 107 107 104 99 94 80 83 78 79 77 76 64 75 77 75 70 71
154 156 144 131 124 120 115 114 116 103 93 91 84 77 77 82 87 87 85 87 84 87 92 99 104 107 106 106 105 103 103 97 88 88 83 74 82 78 76 76 75 73 77
142 151 146 135 127 122 119 119 114 115 107 98 79 75 76 78 81 81 80 84 86 87 91 94 98 98 99 104 108 115 112 103 82 89 100 85 68 41 49 73 76 70 69
166 158 154 141 133 127 123 120 112 115 117 116 83 76 70 73 74 79 76 91 85 86 92 98 100 101 102 105 112 116 98 99 99 86 77 64 45 33 25 16 88 44 27
176 164 161 150 141 136 130 124 118 118 121 124 94 82 73 71 70 73 76 81 77 80 90 97 100 103 106 108 112 108 101 86 84 74 39 50 22 20 40 103 108 62 78
187 174 170 162 155 149 144 137 131 128 132 128 114 97 82 74 74 71 83 79 77 89 91 96 100 103 109 108 110 108 94 81 73 64 15 22 28 42 50 60 23 49 313
188 184 179 173 168 165 159 152 147 141 140 145 129 117 98 79 76 74 85 82 96 93 92 97 100 106 106 105 111 115 114 76 51 17 0 27 19 12 12 347 298 310 332
183 203 187 186 181 179 176 174 169 165 160 162 153 142 113 113 74 68 68 70 86 104 105 104 101 102 101 102 108 113 92 71 46 23 12 19 14 10 354 344 325 332 315
185 203 216 191 185 192 190 189 189 186 183 185 180 168 133 122 81 59 12 227 134 127 135 126 114 106 105 101 109 117 94 133 356 349 4 17 14 17 10 11 24 39 5
196 195 217 199 195 195 207 193 204 202 204 209 200 195 173 206 223 300 304 224 196 173 167 158 150 145 95 124 98 115 142 112 27 320 10 8 15 18 17 21 4 357 355
200 197 218 222 200 204 208 211 216 208 216 221 225 214 207 228 221 270 306 225 193 210 182 191 205 125 139 126 113 105 126 125 200 333 359 356 5 13 14 18 8 355 355
204 202 219 231 214 210 212 215 210 218 223 228 228 232 234 235 236 247 270 284 256 229 232 228 221 201 189 175 157 112 81 35 311 297 325 338 328 344 350 354 1 0 340
219 207 215 235 230 221 222 223 223 216 216 228 235 236 234 237 243 241 245 247 255 241 238 242 232 227 227 223 214 267 320 329 307 294 302 312 312 302 313 322 327 331 333
217 212 224 228 232 233 226 229 228 230 226 222 219 245 233 233 243 245 247 244 246 243 242 247 252 252 255 246 262 273 286 298 301 303 291 295 304 310 306 299 302 306 308
218 213 215 228 227 235 233 231 233 234 235 235 233 237 245 234 237 243 248 249 248 245 244 244 244 253 258 271 275 283 287 292 291 293 289 282 289 296 299 302 296 291 294
216 215 220 230 237 240 234 234 235 238 236 235 238 238 237 242 236 240 245 250 251 251 246 246 250 253 260 269 277 282 289 286 284 285 286 287 285 286 292 295 294 298 295
215 219 224 238 245 241 236 235 234 236 238 238 241 240 239 242 245 244 244 245 250 254 253 252 257 260 267 277 279 277 276 280 283 286 290 291 292 289 284 283 288 288 289
216 218 222 228 244 247 240 231 233 235 236 238 241 244 242 241 244 247 246 247 249 255 253 253 256 258 263 270 275 279 282 283 283 288 289 294 290 290 284 282 283 286 292
223 226 224 227 231 245 250 245 237 238 239 245 244 246 249 245 247 249 250 251 252 256 264 260 264 269 271 274 275 279 286 286 288 288 287 292 297 294 292 296 293 293 294
234 236 233 227 223 231 246 255 239 233 237 238 240 243 248 248 243 247 251 253 257 260 263 270 270 274 276 278 283 277 277 275 286 292 288 285 286 290 288 291 290 292 294
239 242 242 241 230 222 231 248 255 242 238 243 243 246 250 251 247 246 250 251 253 258 264 271 271 274 277 280 285 289 282 278 280 287 287 290 287 286 290 295 294 292 287
238 241 246 244 239 229 223 237 249 255 240 238 241 246 247 250 253 250 246 247 251 255 262 263 273 279 280 286 289 297 288 293 289 282 283 299 297 298 298 297 296 293 291
226 229 234 236 233 229 225 218 231 242 245 241 241 241 251 252 256 256 245 244 251 254 263 268 274 277 280 284 285 289 286 288 290 293 295 297 297 300 298 296 294 296 294
Wind_Speed_850mb
23 33 19 19 18 20 23 24 22 21 20 22 19 20 21 21 20 22 15 11 9 16 23 25 25 29 33 35 36 38 39 40 39 37 37 35 34 36 32 30 30 33 31
29 34 21 20 20 21 25 28 23 17 22 26 25 27 25 20 17 27 22 21 21 25 28 27 28 30 33 33 34 36 37 39 36 30 29 29 27 25 24 25 24 24 22
34 31 25 21 21 22 25 29 23 16 22 28 29 29 30 30 35 28 26 29 30 29 27 27 27 30 29 28 30 33 34 33 31 22 29 23 27 17 16 19 19 17 17
34 29 26 24 22 22 23 25 24 20 26 25 29 31 30 34 35 26 26 32 30 28 25 25 24 22 22 22 24 28 35 30 25 22 26 27 26 22 20 22 22 22 15
30 29 28 25 23 23 23 23 22 24 25 23 29 31 32 31 28 25 27 28 28 27 27 25 23 21 19 20 22 24 29 24 14 18 21 18 21 22 18 18 16 20 22
31 29 27 25 23 23 23 22 23 27 27 21 25 28 29 29 26 23 25 26 25 25 24 24 23 22 23 24 28 35 32 28 26 21 15 16 19 14 11 13 16 11 11
31 28 28 25 24 22 21 21 22 25 27 18 18 23 26 27 25 22 21 22 23 22 22 23 24 25 26 29 31 30 32 23 18 15 14 15 15 13 10 6 7 3 3
31 31 29 26 23 22 21 20 20 22 25 18 16 19 20 23 22 19 19 18 18 19 19 21 22 25 27 29 29 27 29 21 13 8 10 13 18 19 13 2 7 4 7
27 31 32 28 26 23 21 19 19 19 21 18 15 15 15 17 18 17 13 13 15 14 16 18 21 22 24 24 25 26 27 14 13 10 6 15 23 17 16 9 4 3 3
26 26 31 29 26 22 20 19 17 16 17 16 13 11 10 11 13 13 11 8 11 12 14 16 18 20 19 18 18 22 22 14 10 9 7 16 18 12 11 4 5 7 4
30 26 30 30 28 25 21 19 18 16 15 15 12 9 5 7 7 8 6 4 7 8 10 12 14 14 12 12 15 18 18 11 8 7 12 15 18 19 16 14 8 5 5
39 32 30 33 30 28 27 23 20 17 15 13 11 10 8 4 3 7 3 1 3 6 8 9 9 9 7 10 10 11 9 8 7 10 15 12 16 19 19 13 7 7 4
39 38 36 36 36 32 29 27 24 21 18 16 14 14 13 13 6 2 3 3 4 6 7 7 6 3 6 4 4 7 5 12 3 11 14 15 14 19 23 16 13 11 8
39 40 40 39 40 36 33 27 27 24 23 20 17 16 16 13 9 6 2 3 6 7 8 8 5 2 3 3 3 4 4 6 3 12 12 12 14 15 19 20 15 12 11
47 44 45 43 46 44 42 35 32 27 25 23 22 21 18 16 11 10 7 4 5 8 7 8 6 6 5 4 3 3 4 3 2 10 16 13 14 14 12 14 16 14 14
36 46 51 47 38 46 47 43 39 35 31 26 27 25 23 21 18 16 14 11 8 9 10 10 8 8 6 6 4 2 5 9 9 11 19 23 18 17 17 17 18 18 18
41 42 44 41 39 41 45 46 44 42 39 33 29 29 28 29 26 23 21 19 15 12 12 12 12 11 10 9 9 10 13 16 18 21 23 29 32 31 25 24 25 26 24
39 40 44 45 47 47 40 43 44 44 42 42 39 35 33 33 33 30 28 25 24 20 17 16 13 13 14 16 18 22 22 23 28 29 33 32 39 41 41 38 33 33 34
40 40 43 47 47 44 40 41 42 44 44 41 39 40 35 31 34 36 33 31 31 30 27 25 22 21 22 26 29 33 35 38 41 41 42 44 45 46 50 50 47 48 45
37 39 40 46 47 42 42 44 43 45 45 42 42 38 39 38 33 32 38 37 39 37 35 34 33 33 33 37 42 43 47 50 52 54 55 56 56 54 51 54 56 53 53
45 46 46 48 50 48 48 51 52 52 51 49 48 45 41 38 39 40 39 39 43 44 40 40 42 43 45 46 50 58 60 63 61 60 60 58 57 58 53 52 56 58 60
38 45 48 51 52 55 54 48 51 52 52 50 49 50 49 44 43 44 43 43 45 46 40 41 45 47 49 51 55 60 60 64 64 58 51 47 49 49 50 47 46 55 60
40 44 49 55 55 52 55 53 44 46 48 50 53 53 53 47 45 46 45 43 44 48 44 51 44 47 52 55 56 61 34 23 43 50 53 53 52 58 57 53 59 56 58
39 45 46 52 61 60 54 55 54 51 54 54 48 47 48 47 45 46 45 46 45 46 48 47 48 45 48 52 54 55 57 66 57 40 54 57 61 67 64 61 63 60 62
30 35 37 38 38 46 60 58 55 49 45 42 38 37 37 39 38 40 42 42 45 46 44 45 40 51 49 54 47 55 52 57 52 55 66 68 68 68 62 69 71 65 63
16 17 20 21 25 33 42 56 51 43 42 34 30 32 32 30 30 29 30 35 36 40 38 41 39 47 44 45 51 48 47 51 53 54 64 73 72 78 75 76 76 75 73
Wind_Direction_850mb
182 161 137 124 119 109 105 105 92 82 69 75 77 95 100 94 91 80 97 138 118 85 94 91 103 98 90 88 89 87 88 85 81 83 84 84 83 79 77 80 82 80 78
169 161 143 130 116 114 103 108 106 77 76 86 83 86 91 85 92 83 74 88 106 95 97 98 108 106 100 96 91 90 89 82 74 66 69 70 71 76 74 68 72 81 83
161 154 144 129 119 115 112 112 103 88 81 91 88 92 88 86 85 89 79 90 93 96 101 103 108 109 104 100 97 96 86 76 69 63 65 69 69 65 92 85 80 77 87
155 153 143 128 118 115 114 116 118 94 87 81 86 84 86 89 94 87 78 85 92 96 102 104 108 110 107 107 104 99 94 80 83 78 79 77 76 64 75 77 75 70 71
154 156 144 131 124 120 115 114 116 103 93 91 84 77 77 82 87 87 85 87 84 87 92 99 104 107 106 106 105 103 103 97 88 88 83 74 82 78 76 76 75 73 77
142 151 146 135 127 122 119 119 114 115 107 98 79 75 76 78 81 81 80 84 86 87 91 94 98 98 99 104 108 115 112 103 82 89 100 85 68 41 49 73 76 70 69
166 158 154 141 133 127 123 120 112 115 117 116 83 76 70 73 74 79 76 91 85 86 92 98 100 101 102 105 112 116 98 99 99 86 77 64 45 33 25 16 88 44 27
176 164 161 150 141 136 130 124 118 118 121 124 94 82 73 71 70 73 76 81 77 80 90 97 100 103 106 108 112 108 101 86 84 74 39 50 22 20 40 103 108 62 78
187 174 170 162 155 149 144 137 131 128 132 128 114 97 82 74 74 71 83 79 77 89 91 96 100 103 109 108 110 108 94 81 73 64 15 22 28 42 50 60 23 49 313
188 184 179 173 168 165 159 152 147 141 140 145 129 117 98 79 76 74 85 82 96 93 92 97 100 106 106 105 111 115 114 76 51 17 0 27 19 12 12 347 298 310 332
183 203 187 186 181 179 176 174 169 165 160 162 153 142 113 113 74 68 68 70 86 104 105 104 101 102 101 102 108 113 92 71 46 23 12 19 14 10 354 344 325 332 315
185 203 216 191 185 192 190 189 189 186 183 185 180 168 133 122 81 59 12 227 134 127 135 126 114 106 105 101 109 117 94 133 356 349 4 17 14 17 10 11 24 39 5
196 195 217 199 195 195 207 193 204 202 204 209 200 195 173 206 223 300 304 224 196 173 167 158 150 145 95 124 98 115 142 112 27 320 10 8 15 18 17 21 4 357 355
200 197 218 222 200 204 208 211 216 208 216 221 225 214 207 228 221 270 306 225 193 210 182 191 205 125 139 126 113 105 126 125 200 333 359 356 5 13 14 18 8 355 355
204 202 219 231 214 210 212 215 210 218 223 228 228 232 234 235 236 247 270 284 256 229 232 228 221 201 189 175 157 112 81 35 311 297 325 338 328 344 350 354 1 0 340
219 207 215 235 230 221 222 223 223 216 216 228 235 236 234 237 243 241 245 247 255 241 238 242 232 227 227 223 214 267 320 329 307 294 302 312 312 302 313 322 327 331 333
217 212 224 228 232 233 226 229 228 230 226 222 219 245 233 233 243 245 247 244 246 243 242 247 252 252 255 246 262 273 286 298 301 303 291 295 304 310 306 299 302 306 308
218 213 215 228 227 235 233 231 233 234 235 235 233 237 245 234 237 243 248 249 248 245 244 244 244 253 258 271 275 283 287 292 291 293 289 282 289 296 299 302 296 291 294
216 215 220 230 237 240 234 234 235 238 236 235 238 238 237 242 236 240 245 250 251 251 246 246 250 253 260 269 277 282 289 286 284 285 286 287 285 286 292 295 294 298 295
215 219 224 238 245 241 236 235 234 236 238 238 241 240 239 242 245 244 244 245 250 254 253 252 257 260 267 277 279 277 276 280 283 286 290 291 292 289 284 283 288 288 289
216 218 222 228 244 247 240 231 233 235 236 238 241 244 242 241 244 247 246 247 249 255 253 253 256 258 263 270 275 279 282 283 283 288 289 294 290 290 284 282 283 286 292
223 226 224 227 231 245 250 245 237 238 239 245 244 246 249 245 247 249 250 251 252 256 264 260 264 269 271 274 275 279 286 286 288 288 287 292 297 294 292 296 293 293 294
234 236 233 227 223 231 246 255 239 233 237 238 240 243 248 248 243 247 251 253 257 260 263 270 270 274 276 278 283 277 277 275 286 292 288 285 286 290 288 291 290 292 294
239 242 242 241 230 222 231 248 255 242 238 243 243 246 250 251 247 246 250 251 253 258 264 271 271 274 277 280 285 289 282 278 280 287 287 290 287 286 290 295 294 292 287
238 241 246 244 239 229 223 237 249 255 240 238 241 246 247 250 253 250 246 247 251 255 262 263 273 279 280 286 289 297 288 293 289 282 283 299 297 298 298 297 296 293 291
226 229 234 236 233 229 225 218 231 242 245 241 241 241 251 252 256 256 245 244 251 254 263 268 274 277 280 284 285 289 286 288 290 293 295 297 297 300 298 296 294 296 294